Content
SEND FEEDBACK

Daily
Averages
Monthly
Summary
Czech Republic

SCHLAPANITZ, CZECH REPUBLIC


Home > Europe > Czech Republic
Elevation: 807 feet     Latitude: 49 01N     Longitude: 016 42E

WEATHER
 
SELECT A DAY
Number of Records: 294,158;   Date Range: 2/20/97 - 10/20/14
 
SHARE

PRINT THIS DATA

[ ← Previous Day ]
WEATHER ALMANAC - FEBRUARY 13, 2013
[ Next Day → ]
[ °C ]   °F
Weather ElementAverageHighLow
Temperature30.8 °F32 °F (9:47 am)28.4 °F (12:30 am)
Dewpoint28 °F30.2 °F (9:30 am)26.6 °F (12:30 am)
Humidity89.4 %100 % (7:00 am)80 % (9:00 pm)
Barometer30.05 in30.20 in (7:00 pm)29.89 in (12:30 am)
Wind Speed6.9 mph13.4 mph (1:00 pm)
Weather ElementAverage
Visibility1.8 mi
Wind DirectionW (273.4 °)

Weather ElementTotal
Precipitation---
Heating Degree Days34.8 (Base 65)
Averaged from 67 records on February 13, 2013
WEATHER CONDITIONS BREAKOUT
WIND DIRECTION BREAKOUT
WEATHER BY HOUR - FEBRUARY 13, 2013
[ °C ]   °F
Local TimeTemperatureDewpointHumidityBarometerVisibilityWind DirectionWind SpeedGust SpeedPrecipitationEventsConditions
12:30 AM28.4 °F26.6 °F93 %29.89 in1.2 miNE (50°)4.6 mphSnowLight Snow
1:00 AM29.0 °F27.0 °F87 %29.97 in1.0 miENE (70°)4.5 mphSnowLight Snow
1:00 AM28.4 °F26.6 °F93 %29.89 in1.2 miVariable2.3 mphSnowLight Snow
1:07 AM28.4 °F26.6 °F93 %29.92 in0.9 miENE (70°)4.6 mphSnowLight Snow
1:30 AM28.4 °F26.6 °F93 %29.92 in1.1 miENE (70°)4.6 mphSnowLight Snow
2:00 AM28.4 °F26.6 °F93 %29.92 in1.1 miENE (60°)2.3 mphSnowLight Snow
2:30 AM28.4 °F26.6 °F93 %29.92 in1.1 miENE (60°)2.3 mphSnowLight Snow
3:00 AM28.4 °F26.6 °F93 %29.92 in1.1 miENE (70°)2.3 mphSnowLight Snow
3:30 AM28.4 °F26.6 °F93 %29.92 in0.9 miNW (320°)1.2 mphSnowLight Snow
4:00 AM28.4 °F26.6 °F93 %29.95 in0.9 miWNW (300°)1.2 mphSnowLight Snow
4:30 AM28.4 °F26.6 °F93 %29.95 in0.8 miCalmSnowLight Snow
5:00 AM28.4 °F26.6 °F93 %29.95 in0.8 miWest (270°)1.2 mphSnowLight Snow
5:30 AM28.4 °F26.6 °F93 %29.95 in0.7 miWest (260°)2.3 mphSnowLight Snow
6:00 AM28.4 °F26.6 °F93 %29.95 in0.7 miWest (270°)3.5 mphSnowLight Snow
6:30 AM28.4 °F26.6 °F93 %29.98 in0.8 miWest (270°)2.3 mphSnowLight Snow
6:34 AM28.4 °F26.6 °F93 %29.98 in0.5 miVariable2.3 mphFog-SnowLight Snow
7:00 AM28.4 °F28.4 °F100 %29.98 in0.4 miCalmFog-SnowLight Snow
7:00 AM29.0 °F27.0 °F91 %30.04 in0.0 miWSW (250°)2.2 mphSnowLight Snow
7:30 AM30.2 °F28.4 °F93 %29.98 in0.6 miWNW (300°)3.5 mphSnowLight Snow
7:50 AM30.2 °F28.4 °F93 %30.01 in0.8 miNW (310°)4.6 mphSnowLight Snow
8:00 AM30.2 °F28.4 °F93 %30.01 in0.8 miNW (310°)4.6 mphSnowLight Snow
8:30 AM30.2 °F28.4 °F93 %30.01 in0.8 miWNW (300°)5.8 mphSnowLight Snow
8:41 AM30.2 °F28.4 °F93 %30.01 in1.2 miWNW (300°)6.9 mphSnowLight Snow
9:00 AM30.2 °F28.4 °F93 %30.01 in1.6 miWNW (300°)9.2 mphSnowLight Snow
9:13 AM30.2 °F28.4 °F93 %30.01 in1.9 miNW (310°)9.2 mphSnowLight Snow
9:30 AM30.2 °F30.2 °F100 %30.01 inNW (310°)6.9 mphSnowLight Snow
9:47 AM32.0 °F28.4 °F87 %30.01 in1.9 miNW (310°)6.9 mphSnowLight Snow
10:00 AM32.0 °F28.4 °F87 %30.04 in1.6 miNW (310°)6.9 mphSnowLight Snow
10:30 AM32.0 °F28.4 °F87 %30.04 in1.1 miNW (320°)8.1 mphSnowSnow
10:41 AM32.0 °F28.4 °F87 %30.04 in0.9 miNW (320°)8.1 mphSnowSnow
10:52 AM32.0 °F28.4 °F87 %30.04 in0.9 miNW (320°)6.9 mphSnowSnow
11:00 AM32.0 °F28.4 °F87 %30.04 in1.2 miNNW (330°)6.9 mphSnowSnow
11:20 AM32.0 °F30.2 °F93 %30.06 in1.9 miNNW (330°)5.8 mphSnowSnow
11:30 AM32.0 °F30.2 °F93 %30.06 in2.2 miNNW (330°)5.8 mphSnowLight Snow
11:45 AM32.0 °F30.2 °F93 %30.06 in1.9 miNNW (330°)4.6 mphSnowLight Snow
12:00 PM32.0 °F30.2 °F93 %30.06 in1.6 miNNW (330°)5.8 mphSnowLight Snow
12:30 PM32.0 °F30.2 °F93 %30.06 in2.5 miNNW (340°)6.9 mphSnowLight Snow
12:52 PM32.0 °F30.2 °F93 %30.06 in1.9 miNNW (340°)11.5 mphSnowLight Snow
1:00 PM32.0 °F30.0 °F90 %30.13 in2.0 miNNW (340°)13.4 mphSnowLight Snow
1:00 PM32.0 °F30.2 °F93 %30.06 in1.6 miNNW (340°)11.5 mphSnowLight Snow
1:30 PM32.0 °F28.4 °F87 %30.06 in1.9 miNNW (340°)10.4 mphSnowLight Snow
2:00 PM32.0 °F28.4 °F87 %30.06 in2.5 miNNW (330°)10.4 mphSnowLight Snow
2:30 PM32.0 °F28.4 °F87 %30.09 in2.5 miNNW (330°)9.2 mphSnowLight Snow
2:48 PM32.0 °F28.4 °F87 %30.09 in3.1 miNNW (340°)11.5 mphSnowLight Snow
3:00 PM32.0 °F28.4 °F87 %30.09 in2.8 miNNW (330°)11.5 mphSnowLight Snow
3:09 PM32.0 °F28.4 °F87 %30.09 in2.5 miNNW (330°)10.4 mphSnowLight Snow
3:30 PM32.0 °F28.4 °F87 %30.09 inNNW (330°)10.4 mphSnowLight Snow
3:53 PM32.0 °F28.4 °F87 %30.09 in1.9 miNNW (330°)9.2 mphSnowSnow
4:00 PM32.0 °F28.4 °F87 %30.09 in1.2 miNNW (330°)9.2 mphSnowSnow
4:30 PM32.0 °F28.4 °F87 %30.12 in1.7 miNNW (330°)9.2 mphSnowLight Snow
4:42 PM32.0 °F28.4 °F87 %30.12 in2.2 miNNW (330°)9.2 mphSnowLight Snow
5:00 PM32.0 °F28.4 °F87 %30.12 in1.9 miNNW (330°)10.4 mphSnowLight Snow
5:30 PM32.0 °F28.4 °F87 %30.12 in1.4 miNNW (330°)9.2 mphSnowLight Snow
6:00 PM32.0 °F28.4 °F87 %30.12 in1.9 miNNW (340°)10.4 mphSnowLight Snow
6:30 PM32.0 °F28.4 °F87 %30.12 in1.9 miNNW (340°)9.2 mphSnowLight Snow
7:00 PM31.0 °F28.0 °F85 %30.20 in2.0 miNNW (330°)8.9 mphSnowLight Snow
7:00 PM30.2 °F28.4 °F93 %30.15 in1.9 miNNW (330°)8.1 mphSnowLight Snow
7:30 PM32.0 °F28.4 °F87 %30.15 in2.5 miNW (320°)6.9 mphSnowLight Snow
8:00 PM32.0 °F28.4 °F87 %30.15 in3.1 miNNW (330°)8.1 mphSnowLight Snow
8:30 PM32.0 °F28.4 °F87 %30.15 in3.1 miNNW (330°)8.1 mphSnowLight Snow
9:00 PM32.0 °F26.6 °F80 %30.15 in3.1 miNNW (330°)10.4 mphSnowLight Snow
9:30 PM32.0 °F26.6 °F80 %30.18 in3.7 miNNW (330°)9.2 mphSnowLight Snow
10:00 PM32.0 °F26.6 °F80 %30.18 in4.3 miNW (320°)10.4 mphSnowLight Snow
10:30 PM32.0 °F26.6 °F80 %30.18 in5.0 miNW (320°)10.4 mphSnowLight Snow
11:00 PM32.0 °F26.6 °F80 %30.18 in4.3 miNNW (330°)11.5 mphSnowLight Snow
11:30 PM32.0 °F26.6 °F80 %30.18 in4.3 miNW (320°)9.2 mphSnowLight Snow
11:41 PM32.0 °F26.6 °F80 %30.18 in3.1 miNW (320°)10.4 mphSnowLight Snow
Hourly data recorded from LKTB, located miles away from Schlapanitz, Czech Republic







STORIES FROM OUR PARTNERS